User: anonymous   Login
Location: Unspecified
(0.0000°N, 0.0000°E)
Time: 01:34:42
(UTC+00:00)
Language:

AMOS 1 - Orbit

View from above orbital plane
View from above orbital plane
View from above satellite
View from above satellite

Ground track
Ground track

The orbit data is extracted from the following two-line orbital elements,

1 23865U 96030B   15241.38526481 -.00000071  00000-0  00000+0 0  9990
2 23865 005.9022 058.7344 0013527 103.0187 196.8132 00.97116804 70264
Epoch (UTC): 29 August 2015 09:14:46
Eccentricity: 0.0013527
inclination: 5.9022°
perigee height: 36636 km
apogee height: 36753 km
right ascension of ascending node: 58.7344°
argument of perigee: 103.0187°
revolutions per day: 0.97116804
mean anomaly at epoch: 196.8132°
orbit number at epoch: 7026

The dashed part of the orbit path shows where the satellite is in the earth's shadow,  

DLR